Temperature
12 12 13 13 10 8 10 10 11 12 13 15 16 16 16 17 18 18 19 20 19 19 18 18 18 17 17 17 17 17 17 17 17 17 17 17 17 17 17 17 17 17 16 16 16 16 16 16 16
12 12 13 12 9 9 9 9 10 12 14 15 16 16 16 17 18 18 19 19 19 19 18 17 17 17 17 17 17 17 17 17 17 17 17 17 17 17 17 17 17 16 16 16 16 16 16 16 16
11 12 12 8 8 9 10 10 10 12 14 15 15 16 16 16 17 17 18 18 18 18 18 17 17 17 17 16 16 16 16 16 16 16 16 16 16 16 17 16 16 16 16 16 16 16 16 16 16
11 12 11 8 8 8 10 11 11 12 13 14 14 15 15 15 15 16 17 17 18 18 17 17 17 17 17 16 16 16 16 16 16 16 16 16 16 16 16 16 16 16 16 16 16 16 16 16 16
11 11 8 7 8 8 8 10 11 11 12 13 14 13 15 15 15 16 17 17 17 17 17 17 16 16 16 16 16 16 16 16 16 16 16 16 16 16 16 16 16 16 16 16 16 16 16 16 16
10 7 7 7 7 8 9 11 11 11 11 12 13 13 14 15 15 16 16 16 16 16 16 16 16 16 16 16 16 16 16 16 16 16 16 16 16 16 16 16 16 16 16 16 16 16 16 16 16
9 6 6 7 7 8 9 11 11 10 11 12 12 12 14 14 15 15 15 16 16 16 15 16 16 16 16 16 16 16 16 16 16 16 16 16 16 16 16 16 16 16 16 16 16 16 16 16 16
9 6 6 6 7 8 9 10 10 10 11 12 12 12 13 14 14 14 15 15 15 15 15 15 15 15 15 15 15 16 16 16 16 16 16 15 15 15 16 16 16 16 16 16 16 16 16 16 16
9 5 5 6 7 8 9 9 10 10 10 11 11 12 12 13 13 14 14 14 15 15 15 15 15 15 15 15 15 15 15 15 15 15 15 15 15 15 15 15 15 16 16 16 16 16 16 16 16
7 5 6 7 7 8 8 8 9 9 9 10 11 11 12 12 12 13 13 14 14 14 14 14 15 15 15 15 15 15 15 15 15 15 15 15 15 15 15 15 15 15 15 15 16 16 16 16 16
6 5 6 7 8 8 8 8 8 8 8 9 10 11 11 11 12 12 12 13 13 14 14 14 14 14 14 15 15 15 15 15 15 15 15 15 15 15 15 15 15 15 15 15 15 15 15 15 15
6 6 6 7 8 7 7 8 8 8 9 10 10 10 10 11 11 12 12 13 13 13 14 14 14 14 14 14 14 15 14 14 15 15 15 15 15 15 15 15 15 15 15 15 15 15 15 15 15
5 6 6 7 7 7 7 7 7 8 9 9 9 10 10 10 11 11 11 12 12 13 13 13 14 14 14 14 14 14 14 14 14 14 14 15 15 15 15 15 15 15 15 15 15 15 15 15 15
5 5 6 6 7 7 6 7 6 8 9 9 9 9 10 10 10 11 11 11 12 12 13 13 13 14 14 14 14 14 14 14 14 14 14 14 15 15 15 15 15 15 15 15 15 15 15 15 15
6 5 5 6 6 6 6 6 6 9 9 8 9 9 9 10 10 10 11 11 11 12 12 13 13 13 13 13 14 14 14 14 14 14 14 14 14 14 15 15 15 15 15 15 15 15 15 15 15
5 4 4 5 6 6 6 5 7 9 8 8 8 8 9 9 10 10 10 11 11 11 12 12 12 13 13 13 13 13 13 14 14 14 14 14 14 14 14 14 14 15 15 15 15 15 15 15 15
4 3 4 4 6 6 5 5 6 8 8 7 8 8 8 9 9 10 10 10 11 11 11 12 12 12 12 13 13 13 13 13 13 14 14 14 14 14 14 14 14 14 14 14 15 15 15 15 15
4 3 4 4 5 5 5 5 6 7 7 7 7 7 8 8 9 9 9 10 10 10 11 11 12 12 12 12 12 12 13 13 13 13 13 14 14 14 14 13 13 14 14 14 14 14 14 14 14
4 4 4 4 5 5 5 5 6 7 7 7 7 7 7 8 9 9 9 9 10 10 10 11 11 11 12 12 12 12 12 13 13 13 13 13 13 13 13 13 13 13 14 14 14 14 14 14 14
4 4 4 4 5 6 5 5 6 6 7 7 7 7 7 7 8 9 9 9 9 10 10 10 11 11 11 12 12 12 12 13 13 13 13 13 13 13 13 13 13 13 13 13 14 14 14 14 13
4 4 4 5 5 6 5 5 6 7 7 7 7 7 7 7 7 8 8 9 9 9 10 10 10 11 11 11 11 12 12 12 12 12 13 13 13 13 13 13 13 13 13 13 14 14 14 14 13
5 5 5 5 5 5 5 5 6 6 6 6 6 6 6 7 7 7 8 8 9 9 9 10 10 10 11 11 11 11 11 11 12 12 13 13 13 13 12 12 13 13 13 13 13 13 13 13 13
5 6 6 5 5 5 5 5 5 6 6 6 6 6 6 6 7 7 7 8 8 9 9 9 10 10 10 10 11 11 11 11 12 12 12 12 12 12 12 12 12 12 12 12 13 13 13 13 13
6 6 5 5 5 5 5 5 5 5 5 6 6 6 6 6 6 6 7 8 8 8 8 9 9 9 10 10 10 10 11 11 11 11 11 12 12 12 12 12 12 12 12 12 12 12 13 13 13
6 5 4 5 4 5 5 5 5 5 5 6 5 5 5 5 5 6 6 7 7 8 8 8 8 9 9 9 10 10 10 11 11 11 11 11 11 11 12 12 12 12 12 12 12 12 12 12 12
6 5 5 5 5 5 5 5 5 6 6 5 5 5 5 5 5 5 6 6 7 7 7 8 8 8 9 9 9 10 10 10 10 10 11 11 11 11 11 12 12 12 11 11 12 12 12 12 12
6 5 5 5 5 5 5 5 6 6 6 5 5 4 4 4 4 4 5 6 6 6 7 7 7 8 8 8 9 9 9 10 10 10 10 11 11 11 11 11 11 11 11 11 11 11 11 11 11
6 6 5 5 6 6 6 5 5 5 5 5 4 4 4 4 4 4 4 5 5 6 6 7 7 7 8 8 8 8 9 9 9 10 10 10 10 10 10 11 11 11 11 11 11 11 11 11 11
6 6 5 5 5 6 6 6 5 5 5 4 4 4 3 3 3 4 4 4 5 5 6 6 7 7 7 7 8 8 8 9 9 9 9 9 9 10 10 10 10 10 10 10 10 10 10 10 10
6 6 5 6 5 5 5 5 5 5 4 4 4 3 3 3 3 3 4 4 5 5 5 5 6 6 6 7 7 7 7 8 8 8 8 9 9 9 9 9 9 9 9 9 9 9 10 10 10
Wind_Speed
7 5 3 4 5 3 4 6 4 4 4 3 2 4 4 5 4 4 4 1 1 6 12 17 20 20 20 20 19 19 19 19 20 20 20 20 20 20 20 19 19 18 19 19 19 19 19 19 18
3 3 5 5 5 3 6 6 7 7 3 5 4 3 3 5 4 6 6 4 1 6 11 15 19 20 20 20 20 19 19 19 19 20 20 20 20 20 20 19 19 19 19 19 19 19 19 18 18
2 4 4 5 5 7 6 5 7 5 5 3 4 3 2 4 6 6 7 6 1 4 8 13 19 20 20 20 20 20 20 19 19 19 19 20 20 20 19 19 19 19 19 20 20 19 18 18 16
4 5 5 3 7 6 4 1 1 4 5 3 2 5 4 2 5 6 8 3 2 3 5 10 18 19 20 20 20 21 20 20 20 19 19 20 20 20 19 19 19 19 20 20 19 19 18 16 15
4 5 3 2 6 5 5 4 2 2 4 4 3 4 4 3 7 7 7 4 2 1 2 6 15 18 19 19 20 20 21 20 20 20 20 20 20 20 19 19 19 20 20 20 19 18 17 15 14
5 5 4 5 6 4 4 4 2 2 3 3 3 2 3 3 9 10 8 5 3 1 0 3 11 16 18 18 19 19 20 20 20 20 20 20 20 20 19 19 20 20 20 19 19 18 16 15 14
5 5 5 4 3 4 3 2 2 3 4 3 2 3 4 6 9 9 7 6 3 1 0 1 5 10 15 18 19 19 19 19 19 20 20 20 20 20 20 20 20 20 19 19 18 17 16 14 14
5 5 3 3 4 4 2 2 1 1 5 4 2 3 4 5 9 9 8 6 4 2 1 3 3 6 8 12 17 19 20 19 19 19 19 19 20 20 21 21 20 20 19 18 18 17 15 14 13
4 4 4 6 6 4 2 3 4 4 4 4 3 4 5 8 9 8 7 7 6 5 4 3 3 4 6 9 13 16 18 18 18 18 19 18 16 17 19 19 20 20 19 18 17 16 15 13 12
4 4 7 4 3 2 2 2 4 5 5 5 6 6 7 8 8 8 7 7 6 6 6 4 4 4 5 8 9 10 13 14 14 14 16 15 15 15 17 19 20 20 19 18 16 15 14 12 10
4 6 4 4 3 2 4 5 4 4 8 8 9 9 8 8 9 8 8 8 7 6 6 5 4 5 5 5 5 6 8 10 12 13 15 14 14 13 14 14 15 16 16 14 14 12 11 10 9
3 3 3 3 2 3 5 5 5 9 12 9 10 10 10 11 11 10 10 10 8 7 8 7 5 5 6 6 5 5 6 6 7 12 15 13 8 8 10 10 12 12 12 10 10 9 9 8 8
2 2 3 5 7 7 8 9 8 12 14 12 11 11 12 12 12 11 10 10 10 9 9 8 7 6 6 6 6 6 6 7 9 11 14 15 9 9 9 9 11 12 12 10 8 8 7 6 6
1 2 5 6 7 5 8 11 7 12 10 9 10 11 12 12 12 11 10 10 10 10 9 8 7 8 7 7 7 7 6 7 9 10 14 16 12 9 9 9 9 10 12 12 10 8 6 4 4
1 3 6 4 4 3 3 9 8 11 8 11 12 12 12 12 11 12 11 11 11 11 10 9 8 8 8 8 8 7 6 7 7 9 14 16 14 12 10 10 10 10 13 12 9 7 5 4 3
2 2 4 5 2 3 0 10 8 7 7 11 11 11 12 12 12 12 11 11 11 10 10 10 9 8 9 9 8 6 6 7 7 9 12 15 16 15 10 10 10 11 12 9 7 6 5 5 4
3 1 3 7 3 2 3 10 10 8 8 12 11 11 12 12 12 11 10 10 11 10 10 10 9 9 10 10 8 7 7 7 6 8 9 13 16 16 11 9 9 12 10 8 8 6 5 5 5
1 1 4 6 5 4 7 14 16 11 9 11 11 11 11 12 13 11 10 10 10 10 10 10 9 10 9 8 6 6 6 7 7 7 9 12 14 16 13 9 10 11 10 9 8 7 5 4 5
2 2 7 8 7 6 10 15 16 12 8 9 9 10 11 12 12 10 9 8 8 8 9 9 10 10 8 6 7 7 7 7 7 8 10 12 13 15 13 11 11 11 11 11 11 7 7 4 4
4 6 8 8 5 5 9 14 12 9 7 7 9 9 10 11 11 10 8 6 7 7 8 8 9 9 10 8 7 5 5 5 7 7 9 11 13 14 13 13 12 13 11 12 12 8 6 4 6
6 6 6 7 8 5 6 8 5 6 5 7 7 7 8 9 12 11 7 6 6 7 7 8 8 8 9 9 6 4 4 3 5 7 8 10 12 13 13 14 13 13 12 12 13 12 11 7 6
5 6 7 7 6 5 3 5 7 8 9 10 10 10 10 11 10 9 8 6 5 6 5 6 6 7 7 8 8 9 8 8 7 7 8 9 11 12 13 13 13 13 12 11 12 12 9 9 8
6 4 5 5 4 5 2 3 7 7 9 13 13 12 11 11 10 8 7 6 5 4 3 4 5 5 6 7 8 10 9 8 6 6 8 9 10 11 12 12 12 13 12 12 11 11 10 8 8
4 2 3 2 1 3 2 2 5 6 10 13 12 13 13 12 11 9 8 7 6 4 2 2 2 3 4 6 7 9 10 9 8 8 8 8 7 9 12 12 12 12 11 11 11 11 12 11 9
0 1 3 4 2 3 2 1 4 7 9 10 11 12 11 11 11 11 11 10 9 7 4 1 0 1 2 4 6 7 9 9 10 9 9 8 6 7 10 10 11 11 10 10 10 11 11 10 10
1 2 2 1 2 4 2 2 4 6 9 9 9 10 11 12 12 12 11 10 9 9 6 4 3 2 1 1 3 4 4 5 5 6 5 6 6 6 8 10 10 10 10 10 10 9 10 9 10
0 1 1 1 1 2 4 4 4 7 10 11 11 12 13 13 13 12 12 11 11 11 9 7 5 5 4 2 2 1 1 2 3 3 3 3 3 4 6 7 8 8 9 9 10 8 9 8 9
1 2 1 1 1 2 4 3 5 10 11 10 11 12 12 12 12 12 12 12 12 12 11 10 9 8 7 6 5 4 3 3 3 3 2 2 2 2 3 4 6 7 7 7 7 6 6 7 7
0 0 1 1 1 1 2 3 3 5 6 7 8 9 11 12 12 12 11 11 12 13 13 14 12 11 10 9 7 7 7 6 6 5 4 3 3 2 1 2 4 5 5 5 6 6 6 7 7
2 1 2 1 1 1 1 3 4 3 4 5 7 8 9 10 11 11 12 12 13 14 14 14 13 12 11 9 9 10 10 9 8 7 6 5 4 3 2 1 1 3 4 5 5 6 6 7 8
Wind_Direction
357 5 56 58 63 67 229 233 224 234 229 243 241 221 218 219 204 238 310 14 203 164 172 171 167 166 165 163 160 156 153 151 149 149 149 148 147 147 146 144 143 139 136 133 130 127 123 119 116
356 28 57 68 112 185 246 230 222 224 246 319 308 268 253 267 279 303 336 322 233 165 169 171 169 169 168 166 163 161 159 156 154 153 153 152 151 150 149 148 145 142 139 135 131 127 124 122 120
36 50 86 98 159 196 224 224 226 268 302 321 322 327 286 295 329 322 316 307 149 159 168 173 172 172 172 170 167 167 165 163 160 159 159 157 156 154 153 151 148 144 140 137 133 130 128 125 123
72 54 62 112 216 226 224 231 255 325 333 347 356 319 306 341 327 307 318 349 105 144 160 176 177 177 176 175 173 172 171 169 167 166 165 163 161 159 157 154 149 145 141 140 138 135 132 128 126
59 82 102 225 239 247 251 264 261 311 311 323 347 302 295 332 327 330 352 21 60 126 145 184 184 183 182 180 179 179 177 175 173 173 171 169 166 163 159 156 150 147 144 144 143 141 137 133 131
62 78 131 225 246 266 263 265 277 271 273 300 314 277 262 322 355 348 357 11 22 11 244 199 195 190 188 186 184 183 181 181 180 179 177 174 171 167 161 158 154 152 150 150 149 146 142 138 136
111 118 179 209 250 265 257 274 214 263 274 271 280 267 279 328 344 341 352 2 13 17 269 229 210 198 193 192 190 188 185 184 184 183 182 179 175 170 163 161 159 157 156 155 154 151 146 142 139
121 118 161 212 219 245 299 339 358 268 268 280 249 234 274 312 331 343 351 359 353 350 280 242 219 210 203 201 199 194 190 189 188 187 183 180 177 172 166 164 164 162 161 160 159 156 151 145 142
91 103 199 211 205 238 336 351 324 302 279 294 272 244 269 307 330 346 346 343 341 333 318 278 235 220 210 206 206 200 196 194 192 188 183 177 176 171 167 166 167 165 164 163 162 160 154 146 143
107 174 216 214 202 240 306 295 300 313 299 286 282 278 295 311 322 322 315 308 309 308 303 286 257 230 220 215 204 201 199 195 192 186 180 175 170 168 167 169 168 167 166 165 165 162 154 145 140
149 191 218 244 246 271 292 287 267 262 269 251 264 282 295 300 302 294 284 277 274 275 280 280 258 236 220 213 202 196 195 191 188 182 178 171 165 164 163 166 169 168 165 163 164 159 154 150 148
160 218 224 260 280 280 272 278 272 235 247 255 260 272 281 285 283 277 274 272 270 270 268 267 258 236 222 215 207 197 192 189 188 186 178 171 167 165 167 169 169 167 167 163 161 159 160 160 161
199 272 276 272 280 266 262 256 262 259 260 268 273 272 268 271 271 266 261 262 261 259 261 259 247 232 222 214 209 198 195 193 189 186 184 179 174 174 172 173 172 171 170 169 166 165 166 167 167
221 281 293 283 275 270 262 269 253 264 270 277 274 271 269 267 266 266 264 259 255 253 253 254 247 232 217 214 211 204 196 191 187 187 189 185 181 176 177 176 177 177 177 177 175 173 170 172 172
19 331 316 290 271 270 286 289 238 259 280 281 277 274 275 270 266 261 257 252 250 251 249 245 244 231 218 214 211 204 198 189 191 192 190 189 185 181 180 181 183 182 180 176 171 168 165 169 179
37 17 321 305 296 276 249 278 272 277 288 285 283 283 282 277 268 262 257 253 250 248 248 244 240 225 217 214 211 203 199 194 195 192 191 190 188 184 182 185 187 181 178 176 174 173 173 184 186
37 359 294 303 290 280 236 272 284 293 285 284 286 285 284 285 280 271 262 253 248 243 242 241 233 224 216 212 209 202 198 197 194 190 191 193 191 186 186 190 187 180 180 181 183 180 176 184 189
223 259 286 286 292 285 273 273 287 294 283 282 286 288 287 285 280 275 266 257 247 242 238 236 232 225 215 209 201 198 201 201 194 195 194 194 193 189 187 191 187 183 185 186 185 178 177 179 176
172 255 282 275 275 283 274 281 292 300 294 293 297 297 294 287 280 280 269 261 249 244 239 233 230 223 206 198 196 196 204 203 199 201 199 196 196 194 191 193 188 189 193 191 185 176 176 177 152
238 274 280 287 284 280 284 286 289 297 292 296 302 303 302 304 309 303 286 267 250 244 242 234 230 220 207 202 197 188 185 196 200 202 201 200 198 197 197 194 193 193 194 191 186 175 172 176 169
247 244 261 280 311 295 302 305 304 321 319 324 322 314 316 311 309 308 299 274 260 251 243 239 231 219 207 201 195 183 175 176 190 197 203 204 200 200 199 199 194 194 195 196 192 186 182 182 187
264 236 244 274 308 309 344 311 310 329 336 346 344 341 332 322 320 316 316 304 280 258 243 235 227 216 203 195 195 193 195 202 205 202 202 199 199 201 200 200 198 196 197 198 197 193 189 180 187
238 257 249 259 263 288 288 268 302 338 343 345 345 343 337 335 336 330 328 315 308 290 258 238 225 214 200 196 201 205 208 208 203 194 196 200 201 202 199 198 199 198 198 199 197 193 192 191 191
247 297 279 253 241 293 285 225 310 339 334 335 341 343 342 347 349 349 350 353 346 331 298 272 234 226 207 200 202 207 207 204 199 198 200 203 203 203 200 199 200 200 199 199 199 198 198 200 199
177 47 13 5 359 274 300 237 289 323 333 335 338 342 351 358 0 1 2 2 358 357 354 355 5 255 234 213 208 209 210 205 204 204 203 202 203 206 199 198 200 199 198 196 196 199 202 202 203
256 142 140 245 288 307 334 295 298 331 342 350 357 0 7 9 8 5 6 7 3 5 6 11 16 0 354 252 218 207 207 206 204 200 198 203 206 205 195 195 196 197 195 193 195 201 204 202 207
143 168 187 159 276 300 312 308 321 352 360 6 12 14 13 11 10 10 11 12 10 10 12 21 31 28 26 29 46 97 168 178 182 177 183 182 189 194 189 189 190 193 192 192 193 203 202 200 206
181 175 104 142 352 322 323 334 337 342 352 3 9 11 10 8 10 13 17 17 17 18 19 26 32 33 32 34 47 55 72 95 99 102 109 126 130 139 156 173 184 184 184 188 189 194 198 199 206
347 99 167 174 179 171 328 321 336 335 348 359 5 9 10 10 11 14 18 19 22 24 26 28 28 29 32 36 44 48 54 62 67 68 69 77 78 85 134 161 183 184 184 187 194 202 200 206 213
210 215 183 176 271 166 174 298 352 350 5 17 15 15 15 16 17 20 23 25 25 26 26 27 27 30 31 36 46 49 46 46 53 51 47 48 49 49 59 100 164 184 186 194 201 211 212 213 218
Height
1493 1495 1497 1501 1506 1516 1515 1509 1504 1501 1499 1497 1497 1497 1496 1497 1498 1499 1493 1490 1488 1488 1490 1492 1495 1498 1501 1503 1506 1509 1512 1514 1516 1518 1520 1522 1524 1525 1527 1529 1530 1532 1533 1535 1536 1537 1539 1540 1541
1493 1495 1499 1501 1510 1518 1513 1505 1502 1497 1496 1495 1495 1494 1494 1493 1493 1492 1490 1489 1488 1489 1490 1492 1495 1498 1501 1503 1506 1509 1511 1514 1516 1518 1520 1522 1524 1526 1527 1529 1531 1532 1534 1535 1537 1538 1540 1541 1543
1493 1495 1499 1502 1511 1512 1504 1499 1497 1495 1495 1495 1494 1493 1494 1493 1492 1491 1490 1489 1489 1490 1491 1492 1495 1498 1501 1503 1506 1509 1511 1514 1516 1518 1520 1522 1524 1526 1528 1530 1531 1533 1534 1536 1538 1539 1541 1542 1544
1493 1497 1499 1506 1506 1504 1499 1496 1496 1495 1494 1494 1494 1494 1493 1494 1492 1491 1489 1489 1489 1490 1491 1493 1495 1498 1501 1503 1506 1508 1511 1513 1515 1518 1520 1522 1524 1526 1528 1530 1531 1533 1535 1537 1538 1540 1542 1544 1545
1493 1495 1502 1507 1504 1500 1497 1495 1495 1495 1494 1494 1494 1493 1492 1492 1491 1490 1489 1489 1489 1490 1492 1493 1495 1498 1500 1503 1505 1507 1510 1512 1514 1517 1519 1521 1523 1526 1528 1530 1532 1533 1535 1537 1539 1541 1543 1544 1546
1493 1496 1506 1507 1502 1498 1496 1494 1494 1494 1494 1493 1493 1492 1490 1490 1489 1488 1488 1489 1489 1490 1492 1493 1495 1497 1500 1502 1504 1506 1508 1511 1513 1516 1518 1520 1523 1525 1527 1530 1532 1534 1536 1538 1539 1541 1543 1545 1547
1493 1499 1503 1502 1501 1498 1494 1493 1493 1493 1492 1493 1493 1492 1489 1489 1488 1488 1488 1488 1489 1490 1491 1493 1494 1496 1498 1501 1503 1505 1507 1510 1512 1514 1517 1519 1522 1524 1527 1529 1531 1534 1536 1538 1540 1542 1544 1545 1547
1491 1497 1501 1502 1500 1497 1494 1492 1492 1492 1491 1491 1491 1490 1488 1488 1487 1487 1487 1487 1488 1489 1490 1491 1493 1494 1496 1499 1501 1504 1506 1508 1511 1513 1515 1518 1521 1523 1526 1528 1531 1533 1536 1538 1540 1542 1544 1545 1547
1491 1500 1502 1500 1498 1494 1493 1492 1492 1491 1490 1489 1489 1488 1488 1486 1486 1485 1485 1485 1486 1487 1488 1489 1491 1492 1494 1496 1499 1502 1504 1506 1509 1511 1514 1516 1519 1522 1525 1527 1530 1533 1535 1537 1540 1542 1544 1545 1547
1491 1499 1497 1494 1493 1493 1492 1492 1491 1490 1488 1487 1486 1485 1485 1484 1483 1483 1483 1483 1483 1484 1485 1487 1488 1489 1491 1493 1496 1498 1501 1504 1506 1509 1511 1514 1517 1520 1523 1526 1529 1531 1534 1537 1539 1541 1543 1545 1547
1490 1493 1492 1492 1492 1492 1491 1490 1490 1489 1486 1484 1483 1482 1481 1481 1480 1480 1480 1480 1480 1481 1482 1483 1485 1486 1488 1490 1492 1495 1498 1500 1503 1506 1509 1511 1514 1517 1520 1523 1526 1529 1532 1535 1537 1540 1542 1544 1546
1490 1490 1490 1490 1490 1490 1490 1488 1487 1484 1481 1481 1480 1479 1477 1476 1476 1476 1476 1475 1476 1477 1478 1479 1480 1482 1484 1486 1488 1491 1494 1496 1499 1502 1505 1508 1511 1514 1517 1520 1523 1527 1530 1533 1535 1538 1540 1543 1545
1489 1489 1489 1489 1488 1488 1487 1485 1484 1478 1477 1477 1476 1474 1473 1472 1471 1471 1471 1471 1471 1472 1473 1474 1476 1477 1480 1482 1484 1486 1489 1492 1495 1498 1501 1505 1507 1511 1514 1517 1521 1524 1527 1530 1533 1536 1539 1541 1543
1488 1488 1488 1486 1486 1485 1483 1480 1481 1472 1473 1472 1470 1469 1468 1467 1466 1465 1465 1465 1465 1466 1468 1470 1471 1472 1474 1477 1479 1482 1485 1488 1491 1494 1497 1501 1504 1507 1511 1514 1517 1521 1524 1528 1531 1534 1537 1539 1541
1488 1489 1487 1484 1483 1482 1482 1478 1474 1470 1470 1468 1466 1464 1462 1461 1460 1459 1459 1459 1459 1461 1462 1464 1465 1467 1469 1472 1474 1477 1480 1483 1486 1490 1493 1496 1500 1503 1507 1510 1514 1517 1521 1525 1528 1531 1534 1537 1539
1488 1491 1491 1485 1482 1481 1484 1478 1469 1468 1467 1464 1461 1459 1457 1455 1454 1453 1453 1453 1453 1454 1456 1458 1460 1462 1464 1466 1469 1472 1475 1478 1481 1485 1488 1492 1495 1499 1503 1506 1510 1513 1517 1521 1524 1528 1531 1533 1536
1492 1495 1493 1487 1481 1480 1481 1476 1467 1466 1464 1460 1457 1455 1452 1449 1448 1447 1447 1447 1447 1448 1449 1451 1454 1456 1458 1461 1464 1467 1470 1473 1476 1480 1483 1487 1491 1495 1498 1502 1506 1509 1513 1517 1520 1524 1527 1530 1533
1493 1494 1492 1489 1482 1480 1479 1473 1464 1462 1460 1457 1453 1450 1447 1444 1442 1442 1441 1440 1441 1441 1443 1445 1447 1450 1453 1456 1459 1461 1464 1467 1471 1474 1478 1482 1486 1490 1493 1497 1501 1505 1508 1512 1516 1520 1523 1527 1530
1491 1492 1491 1486 1480 1479 1475 1468 1461 1458 1456 1452 1449 1446 1443 1439 1437 1436 1435 1434 1434 1434 1436 1437 1440 1443 1446 1449 1452 1455 1458 1461 1465 1469 1472 1476 1480 1484 1488 1492 1496 1500 1503 1507 1511 1515 1519 1522 1526
1489 1490 1488 1482 1477 1475 1471 1465 1458 1455 1452 1449 1446 1442 1439 1435 1432 1430 1428 1427 1427 1428 1429 1431 1433 1436 1440 1443 1447 1450 1454 1457 1460 1464 1467 1471 1475 1479 1482 1486 1490 1494 1498 1502 1506 1510 1514 1517 1521
1486 1487 1485 1482 1477 1473 1472 1464 1457 1452 1449 1446 1443 1440 1436 1433 1429 1425 1423 1422 1422 1422 1424 1425 1427 1430 1434 1438 1442 1445 1448 1452 1455 1458 1461 1465 1469 1473 1477 1481 1485 1489 1492 1496 1500 1504 1508 1511 1515
1482 1479 1479 1478 1479 1477 1475 1471 1458 1454 1449 1445 1442 1438 1434 1431 1426 1422 1420 1418 1418 1418 1419 1421 1423 1426 1429 1432 1436 1439 1442 1445 1448 1452 1456 1460 1464 1467 1471 1475 1479 1482 1486 1490 1494 1498 1502 1506 1509
1479 1476 1477 1476 1477 1476 1473 1473 1464 1456 1451 1446 1442 1439 1434 1429 1425 1421 1418 1417 1415 1415 1416 1417 1419 1421 1424 1427 1430 1434 1437 1440 1444 1448 1451 1454 1458 1461 1465 1469 1473 1476 1480 1484 1489 1492 1496 1500 1503
1475 1475 1475 1475 1476 1476 1471 1473 1467 1460 1455 1449 1444 1439 1435 1430 1425 1422 1419 1416 1414 1413 1414 1415 1416 1418 1420 1423 1426 1428 1431 1435 1439 1442 1445 1449 1452 1455 1459 1463 1466 1470 1474 1478 1482 1486 1490 1494 1497
1475 1478 1482 1480 1481 1476 1469 1470 1467 1459 1455 1451 1446 1441 1436 1431 1427 1423 1419 1416 1414 1413 1413 1413 1414 1415 1417 1419 1421 1424 1427 1430 1433 1436 1440 1444 1446 1449 1452 1457 1460 1463 1467 1472 1477 1480 1484 1488 1491
1474 1476 1481 1481 1479 1474 1469 1469 1465 1460 1456 1452 1447 1443 1438 1433 1429 1425 1421 1418 1415 1413 1412 1412 1413 1414 1415 1416 1417 1420 1423 1425 1428 1432 1435 1438 1441 1444 1447 1451 1454 1458 1462 1466 1470 1474 1477 1481 1485
1473 1475 1476 1479 1479 1476 1471 1468 1462 1459 1456 1452 1449 1445 1441 1437 1432 1428 1423 1420 1418 1415 1413 1412 1412 1412 1413 1414 1415 1417 1419 1421 1424 1427 1431 1433 1436 1439 1442 1445 1448 1452 1455 1459 1463 1467 1470 1474 1478
1473 1474 1477 1477 1474 1471 1469 1468 1467 1461 1458 1455 1452 1449 1445 1440 1436 1431 1427 1424 1420 1417 1415 1413 1412 1411 1412 1412 1414 1415 1416 1419 1422 1425 1427 1429 1432 1435 1438 1440 1444 1447 1450 1454 1457 1461 1464 1467 1471
1474 1474 1475 1476 1475 1475 1472 1471 1466 1464 1461 1458 1456 1452 1449 1444 1440 1435 1432 1428 1424 1421 1417 1415 1414 1413 1412 1413 1414 1415 1416 1418 1421 1423 1425 1427 1429 1432 1434 1436 1439 1442 1446 1449 1452 1455 1458 1461 1464
1471 1472 1473 1474 1475 1477 1476 1476 1466 1464 1462 1460 1458 1455 1452 1448 1444 1440 1436 1432 1429 1425 1423 1420 1418 1416 1415 1415 1415 1416 1417 1419 1420 1422 1424 1426 1427 1430 1432 1434 1436 1439 1441 1444 1447 1449 1452 1455 1457